This demonstration page uses our WeatherBlox Daily Observations layout. Learn more.

Left ArrowRight Arrow

39.95238, -75.16362

Hourly Observations for February 25, 2017

Temp ( °F °C ) Dew Point ( °F °C ) Humidity (%) Winds ( mph kmh ) Pressure ( in mb ) Visibility ( mi km ) Precip ( " mm )
12:54 am 00:54 Mostly Cloudy 59 15 54 12.2 83 83 SSW 6 9 29.83 1010 10 16 0.00 0.00
1:54 am 01:54 Mostly Cloudy 58 14.4 54 12.2 87 87 SSW 8 13 29.82 1010 10 16 0.00 0.00
2:54 am 02:54 Mostly Cloudy 57 13.9 54 12.2 90 90 S 5 7 29.80 1009 10 16 0.00 0.00
3:54 am 03:54 Mostly Cloudy 56 13.3 53 11.7 90 90 S 5 7 29.78 1009 10 16 0.00 0.00
4:54 am 04:54 Mostly Cloudy 57 13.9 54 12.2 90 90 S 5 7 29.77 1008 10 16 0.00 0.00
5:54 am 05:54 Mostly Cloudy 57 13.9 55 12.8 93 93 SSW 3 6 29.76 1008 10 16 0.00 0.00
6:54 am 06:54 Mostly Cloudy 58 14.4 55 12.8 90 90 S 5 7 29.74 1007 10 16 0.00 0.00
7:54 am 07:54 Mostly Cloudy 59 15 55 12.8 87 87 SE 6 9 29.73 1007 10 16 0.00 0.00
8:54 am 08:54 Partly Cloudy 63 17.2 56 13.3 78 78 SSE 14 22 29.70 1006 10 16 0.00 0.00
9:54 am 09:54 Mostly Cloudy 67 19.4 56 13.3 68 68 S 14 22 29.68 1005 10 16 0.00 0.00
10:54 am 10:54 Mostly Cloudy 69 20.6 56 13.3 63 63 S 15 24 29.67 1005 10 16 0.00 0.00
11:54 am 11:54 Mostly Cloudy 71 21.7 56 13.3 59 59 S 14 22 29.62 1003 10 16 0.00 0.00
12:54 pm 12:54 Mostly Cloudy 71 21.7 56 13.3 59 59 S 10 17 29.58 1002 10 16 0.00 0.00
1:54 pm 13:54 Mostly Cloudy 72 22.2 56 13.3 57 57 S 15 24 29.53 1000 10 16 0.00 0.00
2:54 pm 14:54 Partly Cloudy 72 22.2 55 12.8 55 55 SSE 18 30 29.47 998 10 16 0.00 0.00
3:54 pm 15:54 Mostly Cloudy 69 20.6 54 12.2 59 59 SSE 18 30 29.43 997 10 16 0.00 0.00
4:54 pm 16:54 Windy with Storms Likely 67 19.4 54 12.2 63 63 SSE 21 33 29.44 997 10 16 0.00 0.03
5:05 pm 17:05 Cloudy with Thunderstorms 66 18.9 54 12.2 65 65 S 13 20 29.50 999 6 10 0.00 0.03
5:08 pm 17:08 Cloudy with Strong Thunderstorms 66 19 55 13 68 68 WNW 24 39 29.53 1000 2 3 0.00 0.00
5:10 pm 17:10 Cloudy with Strong Thunderstorms 66 19 55 13 68 68 WNW 35 56 29.53 1000 2 3 0.00 0.00
5:13 pm 17:13 Cloudy with Strong Thunderstorms 65 18.3 58 14.4 78 78 WNW 26 43 29.53 1000 2 2 0.03 0.76
5:19 pm 17:19 Cloudy with Strong Thunderstorms 55 12.8 51 10.6 87 87 WNW 22 35 29.56 1001 3 5 0.20 5.08
5:34 pm 17:34 Cloudy with Light Rain 55 13 52 11 88 88 WNW 18 30 29.56 1001 7 11 0.00 0.00
5:42 pm 17:42 Cloudy 55 13 48 9 77 77 NW 14 22 29.56 1001 10 16 0.00 0.00
5:54 pm 17:54 Mostly Cloudy 55 12.8 49 9.4 80 80 NW 15 24 29.56 1001 10 16 0.27 6.86
6:28 pm 18:28 Cloudy with Rain 54 12 50 10 88 88 WNW 13 20 29.65 1004 5 8 0.00 0.00
6:47 pm 18:47 Cloudy with Light Rain 52 11.1 49 9.4 89 89 NW 15 24 29.62 1003 10 16 0.05 1.27
6:54 pm 18:54 Cloudy with Light Rain 51 10.6 48 8.9 89 89 NW 13 20 29.62 1003 10 16 0.05 1.27
7:54 pm 19:54 Cloudy with Light Rain 52 11.1 45 7.2 77 77 NNW 8 13 29.63 1003 10 16 0.01 0.25
8:54 pm 20:54 Cloudy 51 10.6 44 6.7 77 77 NW 10 17 29.65 1004 10 16 0.00 0.03
9:54 pm 21:54 Mostly Cloudy 51 10.6 44 6.7 77 77 WNW 14 22 29.69 1005 10 16 0.00 0.00
10:54 pm 22:54 Mostly Cloudy 49 9.4 34 1.1 56 56 WNW 16 26 29.71 1006 10 16 0.00 0.00
11:54 pm 23:54 Partly Cloudy 47 8.3 29 -1.7 50 50 WNW 22 35 29.76 1008 10 16 0.00 0.00

Powered by AerisWeather